Regional Weather Roundup
Issued by NWS

Home | Current Version | Previous Version | Text Only | Print | Product List | Glossary Off
Versions: 1 2 3 4 5 6 7 8 9 10 11 12 13 14 15 16 17 18 19 20 21 22 23 24 25 26 27 28 29 30 31 32 33 34 35 36 37 38 39 40 41 42 43 44 45 46 47 48 49 50

000
ASUS45 KABQ 190501
RWRNM
WEATHER ROUNDUP FOR NEW MEXICO
NATIONAL WEATHER SERVICE ALBUQUERQUE NM
1100 PM MDT THU SEP 18 2014

NOTE: "FAIR" MEANS FEW OR NO CLOUDS BELOW 12,000 FEET AGL WITH NO
       SIGNIFICANT WEATHER OR OBSTRUCTIONS TO VISION.

      THIS PRODUCT IS RELEASED AS TWO VERSIONS.  ONE VERSION NEAR
      THE TOP OF THE HOUR CONTAINING PRELIMINARY DATA FROM ALBUQUERQUE
      AND OTHER STATIONS.  A FINAL VERSION WITH ADDITIONAL DATA IS
      ISSUED ABOUT 10 MINUTES AFTER THE HOUR.

NMZ501-503-504-510>518-190600-
NORTHWEST PLATEAU/NORTHCENTRAL MOUNTAINS

CITY           SKY/WX    TMP DP  RH WIND       PRES   REMARKS
FARMINGTON     CLEAR     65  37  35 E5        29.99R
LOS ALAMOS     CLEAR     62  52  69 S13G18    30.20R
SANTA FE       PTCLDY    64  55  72 SE15      30.13R
TAOS           CLEAR     61  46  59 S10       30.18S
ANGEL FIRE     FAIR      43  37  81 CALM      30.30R

$$
NMZ402-403-502-505>509-190600-
WESTCENTRAL MOUNTAINS/SOUTHWEST MOUNTAINS

CITY           SKY/WX    TMP DP  RH WIND       PRES   REMARKS
GALLUP         CLEAR     57  46  66 CALM      30.11R
GRANTS         CLEAR     52  43  71 S3        30.14S
SILVER CITY    CLOUDY    63  61  94 CALM      30.08S

$$
NMZ407-409-411-412-190600-
SOUTHERN DESERTS

CITY           SKY/WX    TMP DP  RH WIND       PRES   REMARKS
LORDSBURG      CLOUDY    64  63  94 MISG      30.01R
DEMING         MOCLDY    65  64  97 E6        30.01R
LAS CRUCES     LGT RAIN  65  64  96 SE6       30.03R
ALAMOGORDO     LGT RAIN  64  64 100 CALM      30.02S
T OR C         PTCLDY    65  63  93 S5        30.02S

$$
NMZ519>523-190600-
CENTRAL VALLEYS/CENTRAL HIGHLANDS

CITY           SKY/WX    TMP DP  RH WIND       PRES   REMARKS
ALBUQUERQUE    MOCLDY    67  58  72 S6        30.08R
DOUBLE EAGLE   MOCLDY    61  57  87 S6        30.11S
CLINES CORNERS MOCLDY    58  54  86 SE8       30.18S
BELEN          MOCLDY    65  59  80 SE8       30.07R
SOCORRO        CLOUDY    64  61  88 SW5       30.04S

$$
NMZ524>526-539-540-190600-
SOUTHCENTRAL MOUNTAINS

CITY           SKY/WX    TMP DP  RH WIND       PRES   REMARKS
RUIDOSO        NOT AVBL

$$
NMZ527>531-190600-
NORTHEAST HIGHLANDS/NORTHEAST PLAINS

CITY           SKY/WX    TMP DP  RH WIND       PRES   REMARKS
LAS VEGAS      MOCLDY    57  54  89 CALM      30.20R
RATON          MOCLDY    60  55  83 W7        30.16S
CLAYTON        NOT AVBL

$$
NMZ532>537-190600-
EASTCENTRAL PLAINS

CITY           SKY/WX    TMP DP  RH WIND       PRES   REMARKS
TUCUMCARI      MOCLDY    65  61  87 S5        30.05S
CANNON AFB     NOT AVBL
CLOVIS AIRPORT   N/A     64  63  94 SE9       30.10S

$$
NMZ028-029-538-190600-
SOUTHEAST PLAINS

CITY           SKY/WX    TMP DP  RH WIND       PRES   REMARKS
ROSWELL        LGT RAIN  68  66  93 SE6       30.01R
CARLSBAD       LGT RAIN  70  32  24 CALM      29.97S
HOBBS          LGT RAIN  66  66 100 E12       30.02F


$$



USA.gov is the U.S. government's official web portal to all federal, state and local government web resources and services.